sat.trackr.live / text

‹ back to catalog

CHECKMATE 4

NORAD 56164 · 2023-050C

PAYLOAD ACTIVE UNKNOWN

§ Identity

Operator
Country
US
Launch date
2023-04-02
Launch site
AFWTR
Launch vehicle
Mass (kg)
RCS (m²)

External: N2YO · Heavens-Above · Gunter

§ Orbital elements

Epoch: 2026-05-24T22:58:08.769216Z

Period
103.99 min
Inclination
81.0005°
Eccentricity
0.0006742
Mean motion
13.84810511 rev/d
Perigee alt
941.9 km
Apogee alt
951.8 km
Semi-major
7,325.0 km
B*
7.3734e-5
RAAN
94.1136°
Arg perigee
43.1817°
Mean anomaly
316.9867°
Rev number
15,892

§ Raw data

CHECKMATE 41 56164U 23050C   26144.95704594  .00000094  00000+0  73734-4 0  99922 56164  81.0005  94.1136 0006742  43.1817 316.9867 13.84810511158922

JSON: /api/v1/satellites/56164 · /tle

For live sub-satellite position, see the globe view (requires WebGL).

§ Visibility from observer

Set your observer location to see the next 7 days of passes ≥ 10°. The values pass through the URL so the page stays shareable.

No JS? Fill the form by hand. The geolocation button needs JavaScript.